EW7671 Weather Reports


Display with metric or nautical units.
time (UTC)temp
F
wind
direction
speed
MPH
gust
MPH
rain 1hr
in
rain 24hr
in
rain mn
in
humidity
%
barometer
mb
20260507113101 52 297 0.0 0.0 0.00 0.14 0.01 35 1013.4
20260507111554 53 294 0.0 0.0 0.00 0.14 0.01 42 1013.5
20260507110049 53 141 0.0 3.0 0.00 0.14 0.01 48 1013.5
20260507104544 53 113 0.0 2.0 0.00 0.14 0.01 51 1013.5
20260507103040 53 101 0.0 4.0 0.00 0.14 0.01 46 1013.7
20260507101536 54 115 0.0 0.0 0.00 0.14 0.01 53 1013.8
20260507100034 55 277 0.0 2.0 0.00 0.14 0.01 52 1013.7
20260507094527 55 162 0.0 0.0 0.00 0.14 0.01 49 1013.7
20260507093022 54 308 0.0 2.0 0.00 0.14 0.01 41 1013.6
20260507091524 52 301 0.0 3.0 0.00 0.14 0.01 37 1013.8
20260507090016 51 273 0.0 1.0 0.00 0.14 0.01 37 1014.0
20260507084510 51 276 0.0 5.0 0.00 0.15 0.01 38 1014.1
20260507083007 50 295 0.0 0.0 0.00 0.15 0.01 22 1014.0
20260507081501 49 343 0.0 0.0 0.00 0.15 0.01 5 1014.1
20260507080114 48 32 0.0 0.0 0.00 0.15 0.01 1 1014.1
20260507074553 48 86 0.0 0.0 0.00 0.16 0.01 1 1014.0
20260507073049 47 86 0.0 0.0 0.00 0.16 0.01 1 1014.1
20260507071602 46 86 0.0 0.0 0.00 0.16 0.01 1 1014.1
20260507070040 46 86 0.0 0.0 0.00 0.16 0.01 1 1014.1
20260507064536 44 86 0.0 0.0 0.00 0.16 0.01 1 1014.2
20260507063034 43 101 0.0 0.0 0.00 0.16 0.01 1 1014.3
20260507061526 42 101 0.0 0.0 0.00 0.16 0.01 1 1014.3
20260507060030 42 101 0.0 0.0 0.00 0.16 0.01 1 1014.2
20260507054518 41 101 0.0 0.0 0.00 0.16 0.01 1 1014.2
20260507053014 41 101 0.0 0.0 0.00 0.16 0.01 1 1014.0
20260507051512 40 101 0.0 0.0 0.00 0.16 0.01 1 1014.0
20260507050005 40 101 0.0 0.0 0.00 0.16 0.01 1 1013.9
20260507044600 39 101 0.0 0.0 0.00 0.16 0.01 1 1013.7
20260507043056 39 101 0.0 0.0 0.00 0.16 0.01 1 1013.6
20260507041552 39 101 0.0 0.0 0.00 0.16 0.01 1 1013.5
20260507040047 39 101 0.0 0.0 0.00 0.16 0.01 1 1013.3
20260507034543 39 101 0.0 0.0 0.00 0.16 0.01 1 1013.3
20260507033044 39 101 0.0 0.0 0.00 0.16 0.01 1 1013.2
20260507031533 39 101 0.0 0.0 0.00 0.16 0.01 1 1013.2
20260507030029 39 101 0.0 0.0 0.00 0.16 0.01 1 1013.2
20260507024526 40 101 0.0 0.0 0.00 0.16 0.01 1 1013.2
20260507023026 40 101 0.0 0.0 0.00 0.16 0.01 1 1013.2
20260507021517 40 101 0.0 0.0 0.00 0.16 0.01 1 1013.2
20260507020018 40 101 0.0 0.0 0.00 0.16 0.01 1 1013.2
20260507014512 40 101 0.0 0.0 0.00 0.16 0.01 1 1013.3
20260507013005 40 101 0.0 0.0 0.00 0.16 0.01 1 1013.2
20260507011504 39 101 0.0 0.0 0.00 0.16 0.01 1 1013.1
20260507010104 39 101 0.0 0.0 0.00 0.16 0.01 1 1013.1
20260507004605 39 101 0.0 0.0 0.00 0.16 0.01 1 1013.0
20260507003049 40 101 0.0 0.0 0.00 0.16 0.01 1 1013.0
20260507001550 40 101 0.0 0.0 0.01 0.16 0.01 1 1013.0
20260507000039 40 96 0.0 1.0 0.01 0.16 0.01 1 1013.1
20260506234535 39 96 0.0 0.0 0.01 0.16 0.01 1 1013.2
20260506233030 39 96 0.0 0.0 0.01 0.16 0.01 1 1013.2
20260506231526 39 96 0.0 0.0 0.00 0.15 0.00 1 1013.2
20260506230022 39 96 0.0 0.0 0.00 0.15 0.00 1 1013.2
20260506224518 40 96 0.0 2.0 0.00 0.15 0.00 1 1013.2
20260506223014 40 96 0.0 0.0 0.00 0.15 0.00 1 1013.2
20260506221510 40 96 0.0 0.0 0.00 0.15 0.00 1 1013.2
20260506220013 41 96 0.0 0.0 0.00 0.15 0.00 1 1013.2
20260506214605 41 96 0.0 0.0 0.00 0.15 0.15 1 1013.1
20260506213056 41 96 0.0 0.0 0.00 0.15 0.15 1 1013.1
20260506211553 41 96 0.0 0.0 0.00 0.15 0.15 1 1013.2
20260506210047 42 96 0.0 0.0 0.00 0.15 0.15 1 1013.1
20260506204549 42 96 0.0 0.0 0.00 0.16 0.15 1 1012.8
20260506203039 42 96 0.0 0.0 0.00 0.16 0.15 1 1012.7
20260506201534 42 96 0.0 0.0 0.00 0.16 0.15 1 1012.4
20260506200030 42 96 0.0 0.0 0.00 0.16 0.15 1 1012.3
20260506194525 42 96 0.0 0.0 0.00 0.18 0.15 1 1012.0
20260506193020 43 36 0.0 0.0 0.00 0.18 0.15 1 1011.9
20260506191516 44 36 0.0 0.0 0.00 0.18 0.15 1 1011.8
20260506190021 44 10 0.0 0.0 0.00 0.18 0.15 1 1011.9
20260506184508 45 10 0.0 0.0 0.00 0.19 0.15 1 1011.5
20260506183006 46 10 0.0 0.0 0.00 0.19 0.15 1 1011.4
20260506181602 46 10 0.0 0.0 0.00 0.19 0.15 1 1011.3
20260506180113 47 10 0.0 0.0 0.00 0.19 0.15 1 1011.2
20260506174551 47 9 0.0 0.0 0.00 0.19 0.15 1 1010.9
20260506173101 47 9 0.0 0.0 0.00 0.19 0.15 1 1010.7
20260506171544 47 9 0.0 0.0 0.00 0.19 0.15 1 1010.5
20260506170036 48 9 0.0 0.0 0.00 0.19 0.15 1 1010.3
20260506164532 48 9 0.0 0.0 0.00 0.19 0.15 1 1010.1
20260506163028 48 9 0.0 0.0 0.00 0.19 0.15 1 1010.2
20260506161524 49 9 0.0 0.0 0.00 0.19 0.15 1 1010.2
20260506160020 49 9 0.0 2.0 0.00 0.19 0.15 1 1010.2
20260506154515 48 139 0.0 0.0 0.00 0.19 0.15 1 1010.4
20260506153011 48 139 0.0 1.0 0.02 0.19 0.15 1 1010.6
20260506151507 47 140 0.0 0.0 0.05 0.19 0.15 1 1010.7
20260506150002 47 129 0.0 3.0 0.07 0.19 0.15 1 1010.8
20260506144607 46 81 0.0 0.0 0.08 0.19 0.15 1 1010.9
20260506143053 47 248 0.0 5.0 0.10 0.17 0.13 1 1011.1
20260506141547 47 298 0.0 2.0 0.08 0.14 0.10 1 1010.9
20260506140044 48 304 0.0 0.0 0.06 0.12 0.08 1 1010.8
20260506134538 49 5 0.0 4.0 0.05 0.12 0.07 1 1010.4
20260506133041 53 330 0.0 7.0 0.01 0.08 0.03 1 1009.5
20260506131532 53 267 0.0 0.0 0.00 0.07 0.02 1 1009.2
20260506130025 53 277 0.0 0.0 0.01 0.07 0.02 1 1009.3
20260506124522 53 308 0.0 0.0 0.01 0.08 0.02 1 1009.6
20260506123017 53 314 0.0 2.0 0.01 0.08 0.02 16 1009.4
20260506121512 54 329 0.0 2.0 0.01 0.08 0.02 37 1009.2
20260506120021 54 309 0.0 0.0 0.00 0.07 0.02 39 1009.2
20260506114505 54 317 0.0 0.0 0.00 0.09 0.02 22 1009.6